Location: Le Neman
(47.2316°N, 0.2006°E)
Time: 18:39:37
(UTC+00:00)

Daily predictions for brighter satellites

Satellite Brightness Start Highest point End
(mag) Time Altitude Azimuth Time Altitude Azimuth Time Altitude Azimuth
USA 234 4.4 19:52:46 10° NE 19:58:54 44° NNW 20:05:03 10° W
Cosmos 923 Rocket 4.1 19:54:31 10° S 19:59:49 69° ESE 20:05:08 10° NNE
OBJECT-B 1.9 19:57:12 10° S 20:00:17 44° W 20:03:24 10° NNW
BREEZE-M DEB (TANK) 3.5 20:00:57 10° WNW 20:03:53 64° SSW 20:12:10 10° ESE
Cosmos 2219 Rocket 3.6 20:00:15 10° N 20:04:52 25° NE 20:09:26 10° ESE
Meteor 2-15 4.5 19:58:52 10° N 20:04:58 90° E 20:11:02 10° S
SJ-6B 3.6 20:03:19 10° S 20:06:57 50° W 20:10:39 10° NNW
Resurs 1-3 3.6 20:03:00 10° SSE 20:07:23 86° E 20:11:49 10° NNW
Cosmos 2056 Rocket 3.8 20:04:51 10° NNW 20:10:05 54° ENE 20:15:12 10° SE
ATLAS 5 CENTAUR R/B 3.5 20:06:07 10° NNW 20:10:45 30° NE 20:16:07 10° E
USA 186 4.0 20:12:14 10° SW 20:14:19 19° W 20:16:18 10° NW
SPOT 1/Viking Rocket 4.1 20:14:44 10° SE 20:19:39 44° ENE 20:24:36 10° N
USA 245 4.4 20:16:53 10° SE 20:20:23 27° ENE 20:23:24 10° NNE
Cosmos 1092 Rocket 4.0 20:15:10 10° S 20:21:27 82° E 20:27:49 10° N
NOSS 2-1 (E) 2.8 20:18:22 10° SSW 20:21:36 59° SE 20:24:57 10° NE
Cosmos 2026 Rocket 4.0 20:18:52 10° S 20:25:07 71° E 20:31:19 10° NNE
SL-16 R/B 2.8 20:21:08 10° NW 20:26:41 55° WSW 20:32:11 10° S
IGS 5A 3.4 20:23:55 10° SSE 20:28:03 83° ENE 20:32:13 10° NNW
GP-B 3.4 20:24:53 10° NNE 20:29:12 48° E 20:33:29 10° SSE
Meteor 1-26 Rocket 4.5 20:24:55 10° NNW 20:30:48 78° W 20:36:28 10° S
Cosmos 1151 Rocket 3.0 20:27:13 10° N 20:31:36 72° E 20:35:59 10° SSE
Cosmos 1680 Rocket 3.6 20:26:58 10° SSW 20:32:15 86° WNW 20:37:32 10° NNE
Cosmos 1371 Rocket 4.1 20:27:00 10° NNW 20:32:25 88° ENE 20:37:42 10° SSE
NOSS 3-1 (C) 4.2 20:25:56 10° NW 20:33:16 71° NE 20:40:55 14° SE
Cosmos 2112 Rocket 4.0 20:28:47 10° SSW 20:34:05 86° ESE 20:39:22 10° NNE
Lacrosse 5 3.4 20:33:37 14° SE 20:34:08 14° ESE 20:36:46 10° E
Cosmos 1271 Rocket 3.7 20:31:43 10° NNW 20:35:37 49° W 20:39:28 10° S
Okean 3 Rocket 3.6 20:32:25 10° S 20:36:52 64° E 20:41:22 10° NNE
ERS-2 2.2 20:37:52 10° NNE 20:41:32 80° WNW 20:45:09 10° SSW
MetOp-B 4.1 20:36:35 10° SSE 20:41:50 76° ENE 20:47:13 10° NNW
COSMOS 2487 3.6 20:45:40 20° SE 20:46:32 22° ESE 20:49:16 10° NE
Cosmos 1515 Rocket 4.0 20:44:36 10° N 20:48:53 47° ENE 20:51:44 19° SE
COSMOS 2428 3.5 20:44:29 10° NNW 20:49:52 41° NE 20:53:52 17° ESE
GEOS 3 Rocket 3.9 20:45:18 10° NE 20:50:30 71° NW 20:55:36 10° SW
USA 229 DEB 4.2 20:44:16 10° NW 20:51:26 60° NE 20:57:36 16° ESE
USA 229 4.2 20:44:21 10° NW 20:51:32 60° NE 20:57:42 16° ESE
COSMOS 2455 3.1 20:46:43 10° S 20:52:25 47° ESE 20:58:11 10° NE
Cosmos 292 Rocket 3.7 20:51:44 10° NNW 20:56:33 83° ENE 20:59:58 19° SSE
Terra 2.9 20:54:30 18° ESE 20:57:12 30° ENE 21:01:21 10° N
Cosmos 1328 Rocket 3.6 20:53:30 10° N 20:57:58 81° W 21:01:43 14° S
Ariane Rocket 4.2 20:53:15 10° SSW 20:57:58 39° W 21:02:43 10° NNW
Cosmos 1809 Rocket 4.4 20:52:16 10° S 20:58:25 85° E 21:04:34 10° N
Cosmos 2360 Rocket 2.5 20:54:23 10° NNW 20:59:59 66° WSW 21:04:37 15° SSE
Cosmos 1766 Rocket 3.9 20:59:07 10° SSW 21:03:27 66° W 21:07:48 10° N
SPOT 3 Rocket 4.0 20:59:52 10° S 21:04:59 62° WSW 21:10:11 10° NNW
Cosmos 972 Rocket 4.5 21:01:59 18° SSE 21:05:13 37° ESE 21:09:45 10° NE
Cosmos 1174 3.7 21:02:38 10° NW 21:05:32 48° WSW 21:06:57 25° S
NOSS 2-1 (C) 4.3 21:02:43 10° WSW 21:05:50 41° NW 21:09:07 10° NNE
Resurs 01 Rocket 2.9 21:05:52 10° SSW 21:10:01 39° W 21:14:13 10° NNW
NOSS 3-1 (A) 4.2 21:04:43 10° NW 21:12:06 74° NE 21:18:16 21° SE
Meteor 2-6 Rocket 4.2 21:06:46 10° NNW 21:12:10 77° W 21:16:31 16° S
Cosmos 2266 Rocket 4.2 21:09:42 18° SSE 21:14:12 54° E 21:20:18 10° NNE
Cosmos 1420 Rocket 4.3 21:10:08 10° NNW 21:15:26 67° WSW 21:19:07 20° S
Cosmos 1812 3.4 21:12:31 10° NNW 21:16:18 52° W 21:19:06 17° SSW
Cosmos 1553 Rocket 4.1 21:11:10 10° NNW 21:17:15 73° W 21:22:39 14° S
Cosmos 1862 3.6 21:16:10 11° SSW 21:19:59 68° W 21:23:57 10° N
Gblst 52 Del rocket 4.4 21:14:35 10° WNW 21:20:32 84° SSW 21:24:54 23° ESE
Meteor 2-21 Rocket 4.4 21:16:33 10° S 21:22:44 84° E 21:28:54 10° N
SL-27 R/B 4.1 21:19:31 10° SW 21:22:52 36° WNW 21:26:14 10° N
ERS-1 Rocket 3.0 21:20:14 26° SSE 21:23:03 71° ENE 21:28:04 10° N
Cosmos 2228 Rocket 3.5 21:21:00 10° N 21:25:17 45° ENE 21:26:53 32° SE
Cosmos 2285 Rocket 4.0 21:23:13 10° NNW 21:29:32 72° ENE 21:33:03 28° SE
Cosmos 2297 Rocket 3.7 21:31:26 19° E 21:31:26 19° E 21:35:10 10° ENE
Cosmos 1805 Rocket 4.1 21:31:35 34° SE 21:32:40 40° E 21:36:49 10° NNE
BREEZE-M DEB (TANK) 2.3 21:27:07 10° WNW 21:33:33 85° NNE 21:34:36 39° E
SPOT 5 2.6 21:31:58 32° SSE 21:33:58 88° ENE 21:38:31 10° NNW
ARIANE 5 R/B 2.7 21:31:52 29° S 21:34:08 77° WSW 21:38:34 10° NNW
Cosmos 2315 Rocket 4.2 21:28:01 10° N 21:34:18 60° ENE 21:37:37 29° SSE
NOSS 0 Rocket 4.3 21:28:28 10° NNW 21:34:35 54° NE 21:37:53 27° ESE
Cosmos 2333 Rocket 2.3 21:29:50 10° NNW 21:35:28 70° WSW 21:38:33 27° S
Cosmos 2322 Rocket 4.2 21:32:36 10° NW 21:36:39 21° W 21:40:42 10° SSW
Cosmos 2237 Rocket 3.2 21:32:27 10° NNW 21:37:42 37° NE 21:40:34 23° ESE
Cosmos 2322 3.9 21:32:44 10° NNW 21:38:26 70° WSW 21:41:30 28° S
Cosmos 1452 Rocket 3.5 21:36:44 10° NNW 21:42:00 77° WSW 21:44:29 32° S
Cosmos 1500 Rocket 3.5 21:40:12 29° S 21:42:29 89° E 21:46:58 10° N
Cosmos 2227 Rocket 3.8 21:44:49 17° E 21:44:49 17° E 21:48:01 10° ENE
Cosmos 2219 Rocket 2.3 21:43:45 10° NNW 21:49:18 66° WSW 21:51:54 32° S
S3M 4.4 21:45:31 10° NNW 21:51:49 61° W 21:56:13 20° SSW
Sich 1 3.2 21:53:27 47° SE 21:54:06 51° E 21:58:17 10° NNE
ATLAS 5 CENTAUR R/B 2.3 21:50:18 10° NW 21:55:52 76° SW 21:58:39 36° SSE
Cosmos 1515 4.0 21:53:34 10° N 21:57:15 48° ENE 21:57:27 48° E
Spot 2 Rocket 4.4 21:54:15 21° SSW 21:57:19 42° W 22:02:11 10° NNW
Cosmos 1331 Rocket 4.0 21:52:38 10° NNW 21:57:53 72° ENE 21:59:36 42° SE
Meteor 1-27 Rocket 3.9 21:52:45 10° NNW 21:58:26 69° W 22:01:24 30° S
Cosmos 1110 Rocket 4.0 21:53:58 10° NNW 21:59:19 81° ENE 22:01:08 42° SSE
Cosmos 1743 Rocket 4.1 22:02:46 25° SSW 22:05:10 56° WNW 22:09:31 10° N
SL-16 R/B 3.7 22:05:16 10° N 22:10:00 26° NE 22:12:56 18° E
Cosmos 1633 Rocket 3.8 22:10:51 37° E 22:10:51 37° E 22:14:45 10° NNE
Cosmos 494 Rocket 3.9 22:11:18 31° SSW 22:13:48 85° WNW 22:18:59 10° NNE
Lacrosse 5 1.7 22:12:22 17° SW 22:16:19 71° SE 22:21:23 10° NE
IRIDIUM 104 4.4 22:12:22 10° N 22:17:36 75° W 22:19:24 41° SSW
APEX 4.4 22:17:43 26° SSW 22:21:18 88° ESE 22:28:09 10° NNE
Cosmos 1666 Rocket 3.6 22:21:09 58° ESE 22:21:21 59° E 22:25:46 10° NNE
Cosmos 1602 3.6 22:22:55 84° ENE 22:22:55 84° ENE 22:26:43 10° N
Nadezhda 2 Rocket 4.5 22:23:47 41° S 22:26:11 77° E 22:32:38 10° NNE
Cosmos 1244 Rocket 4.4 22:30:49 44° S 22:32:53 79° E 22:39:09 10° N
COSMOS 2428 3.7 22:28:55 10° NW 22:34:05 37° WSW 22:35:52 30° SW
Terra 3.0 22:33:24 29° SW 22:34:52 35° W 22:39:15 10° NNW
CZ-4C R/B 3.8 22:28:37 10° NNW 22:35:09 43° NE 22:41:11 16° ESE
Meteor 1-25 Rocket 4.2 22:33:39 40° SSW 22:35:44 76° WNW 22:41:20 10° N
COBE Rocket 3.7 22:36:50 64° SE 22:37:22 73° ENE 22:42:08 10° N
COSMOS 2455 4.2 22:32:55 10° WSW 22:38:30 39° NW 22:44:08 10° NNE
Cosmos 2084 Rocket 4.0 22:35:04 10° NW 22:38:56 45° WSW 22:38:56 45° WSW
Meteor 2-4 Rocket 4.0 22:33:32 10° N 22:39:25 61° ENE 22:40:46 48° SE
CZ-3B R/B 2.0 22:31:07 10° WNW 22:39:32 80° SW 22:39:48 75° SSE
Cosmos 1862 Rocket 3.4 22:40:58 10° N 22:45:19 78° ENE 22:45:19 78° ENE
Meteor 1-18 Rocket 4.2 22:42:11 10° NNW 22:48:00 83° W 22:49:18 55° S
USA 267 3.8 22:42:44 10° ENE 22:48:10 37° ESE 22:48:10 37° ESE
Cosmos 2219 3.2 22:48:17 56° SE 22:48:56 60° ESE 22:54:37 10° NNE
Meteor 1-5 Rocket 4.5 22:49:37 50° SE 22:50:27 55° E 22:56:14 10° NNE
H-2A R/B 4.4 22:48:31 10° N 22:52:32 44° WNW 22:53:30 37° WSW
Spot 4 3.7 22:52:09 69° ESE 22:52:36 76° ENE 22:57:28 10° N
Okean 1 3.8 22:49:13 10° NNW 22:52:58 52° W 22:52:58 52° W
Cosmos 1707 Rocket 4.1 22:49:15 10° NNW 22:53:29 49° W 22:53:48 48° WSW
Cosmos 1302 Rocket 3.9 22:51:41 10° NNW 22:56:54 72° WSW 22:57:32 64° SSW
Cosmos 1500 3.6 22:59:15 60° NW 22:59:15 60° NW 23:02:41 10° N
Meteor 1-19 Rocket 4.5 22:54:20 10° NNW 22:59:44 55° W 23:00:52 46° SW
Cosmos 1980 3.9 22:55:00 10° NW 23:00:32 57° WSW 23:01:24 51° SW
Cosmos 2082 4.5 23:01:12 36° E 23:01:12 36° E 23:06:05 10° NE
Cosmos 1703 Rocket 4.3 22:57:20 10° N 23:01:20 41° ENE 23:01:20 41° ENE
SL-08 R/B 4.4 23:00:49 51° SSW 23:02:31 85° W 23:08:41 10° N
Cosmos 909 Rocket 4.3 23:02:47 51° SSE 23:04:13 61° ESE 23:11:50 10° NE
Cosmos 1378 4.4 23:01:17 10° N 23:03:58 34° NE 23:03:58 34° NE
Meteor 1-11 Rocket 4.5 23:05:20 35° E 23:05:32 35° E 23:10:32 10° NNE
Okean 1-7 3.6 23:05:46 10° N 23:09:33 46° ENE 23:09:33 46° ENE
Cosmos 1269 Rocket 4.0 23:10:35 58° SW 23:11:34 76° WNW 23:16:53 10° NNE
Cosmos 2297 Rocket 2.2 23:13:12 49° SW 23:14:46 75° WNW 23:20:28 10° NNE
Meteor 2-17 Rocket 4.3 23:15:38 60° SSE 23:16:36 72° E 23:22:39 10° NNE
Cosmos 2237 Rocket 2.8 23:16:30 10° NW 23:21:50 42° WSW 23:22:23 41° WSW
ALOS 2 2.6 23:23:09 77° N 23:23:09 77° N 23:27:16 10° NNW
USA 234 3.7 23:18:04 15° E 23:23:28 60° NNE 23:29:54 10° NW
Cosmos 1461 4.2 23:27:18 33° ENE 23:27:18 33° ENE 23:30:02 10° NE
Cosmos 1709 Rocket 4.1 23:26:19 55° SE 23:27:25 64° E 23:33:44 10° NNE
Cosmos 2227 Rocket 2.2 23:26:36 58° SW 23:27:45 79° WNW 23:33:27 10° NNE
Meteor 1-13 Rocket 4.2 23:22:23 10° N 23:28:07 72° ENE 23:28:50 64° SE
Cosmos 2263 Rocket 3.6 23:33:28 24° E 23:33:28 24° E 23:37:32 10° NE
Cosmos 1745 Rocket 4.1 23:35:14 51° SW 23:36:47 69° W 23:43:07 10° N
Cosmos 1536 3.7 23:40:44 44° NE 23:40:44 44° NE 23:43:44 10° NNE
ATLAS 5 CENTAUR R/B 4.3 23:36:29 10° WNW 23:40:01 16° WSW 23:40:09 16° WSW
Cosmos 1241 Rocket 4.4 23:44:34 59° SSW 23:45:54 82° ESE 23:52:25 10° NE
Okean 3 3.9 23:42:08 10° N 23:45:46 58° NNE 23:45:46 58° NNE
Cosmos 1869 Rocket 4.0 23:47:06 56° NE 23:47:06 56° NE 23:50:55 10° NNE
Cosmos 1666 4.2 23:50:39 31° WNW 23:50:39 31° WNW 23:53:41 10° N
Cosmos 44 3.3 23:45:57 10° NW 23:51:15 80° NE 23:51:25 78° E
Thor Agena Rocket 3.9 23:47:50 10° NNE 23:52:34 50° E 23:52:34 50° E
